Weather in Ust-Nevinskiy

Russia / Stavropol Krai     44°32′12″N   41°57′00″E
temp.,
°C
wind,
m/s
gust,
m/s
humid.,
%
clouds,
%
prec.,
mm/h
press.,
hPa
HPBL,
m
23 june, wed
wed2300:00+19wsw11900 0.0 101313
03:00+18ssw11910 0.0 101311
06:00+20w11880 0.0 101358
09:00+24wnw45754 0.0 1012640
12:00+26nw44613 0.0 10121120
15:00+27nw33583 0.0 10121262
18:00+27wnw116438 0.3 1012931
21:00+22ene11770 0.3 101311
24 june, thu
thu2400:00+21wnw0183100 0.1 101311
03:00+19ssw229058 0.4 101314
06:00+20w238985 0.0 1014117
09:00+24nw34761 0.0 1013616
12:00+26nw436540 0.0 10131216
15:00+27nw32594 0.0 10131187
18:00+26nw226715 0.0 1013727
21:00+22wsw11780 0.0 101311
25 june, fri
fri2500:00+20w11870 0.0 101311
03:00+19sw119273 0.0 101211
06:00+20w12887 0.0 101394
09:00+24nw447721 0.0 1013712
12:00+26nw446585 0.1 10121339
15:00+27nw226013 0.1 10111305
18:00+27wnw22680 0.0 1011998
21:00+22w22810 0.0 101114
26 june, sat
sat2600:00+20sw228933 0.0 101113
03:00+19sw2293100 0.0 101020
06:00+20w2690100 0.0 1011237
09:00+23wnw458094 0.0 1011723
12:00+26wnw436728 0.0 10111094
15:00+26nnw336695 0.1 10101139
18:00+24nw2274100 0.3 101146
21:00+22w238298 0.3 101144
27 june, sun
sun2700:00+20w3691100 0.6 1011148
03:00+18sse2292100 1.9 101146
06:00+18w2790100 0.3 1013245
09:00+20wnw4690100 0.3 1014532
12:00+25wnw3368100 0.0 1013935
15:00+26nw4365100 0.0 10131088
18:00+24nw237769 0.0 1014264
21:00+20ssw118210 0.2 101411